Tracking 30995 objects as of 6-Jul-2025
HD Live streaming from Space Station
objects crossing your sky now

STARLINK-31353

Track STARLINK-31353 now!
10-day predictions
STARLINK-31353 is classified as:


NORAD ID: 58980
Int'l Code: 2024-031R
Perigee: 481.6 km
Apogee: 483.2 km
Inclination: 53.2 °
Period: 94.1 minutes
Semi major axis: 6853 km
RCS: Unknown
Launch date: February 15, 2023
Source: United States (US)
Launch site: AIR FORCE WESTERN TEST RANGE (AFWTR)
Your satellite tracking list
Your tracking list is empty




NASA's NSSDC Master Catalog

Two Line Element Set (TLE):
1 58980U 24031R   25186.81316891  .00000012  00000-0  12539-4 0  9996
2 58980  53.1606   3.5292 0001178  84.6948 275.4187 15.30191294 78688
Source of the keplerian elements: AFSPC